Regional Weather Roundup
Issued by NWS Kansas City/Pleasant Hill, MO

Home | Current Version | Previous Version | Graphics & Text | Print | Product List | Glossary Off
Versions: 1 2 3 4 5 6 7 8 9 10 11 12 13 14 15 16 17 18 19 20 21 22 23 24 25 26 27 28 29

000
ASUS43 KEAX 030710
RWREAX

WEATHER ROUNDUP FOR EASTERN KANSAS AND NORTHWEST MISSOURI
NATIONAL WEATHER SERVICE KANSAS CITY/PLEASANT HILL MO
200 AM CDT TUE MAY 03 2016

KSZ040-057-103>105-MOZ028-029-037-043-030800-
...KANSAS CITY METROPOLITAN AREA...

CITY           SKY/WX    TMP DP  RH WIND       PRES   REMARKS
K.C. INTL      CLEAR     47  43  86 W8        30.06F
K.C. DOWNTOWN  CLEAR     47  44  90 CALM      30.06F
LEES SUMMIT    CLEAR     45  43  93 W5        30.06F
OLATHE - IXD   CLEAR     47  43  86 CALM      30.07S
OLATHE - OJC   CLEAR     45  42  89 CALM      30.07S
LAWRENCE       CLEAR     40  40 100 CALM      30.07S FOG

$$

MOZ001>008-011>017-020>025-030>033-038>040-044>046-053-054-030800-
...NORTHERN AND CENTRAL MISSOURI...

CITY           SKY/WX    TMP DP  RH WIND       PRES   REMARKS
ST. JOSEPH     PTCLDY    42  41  96 CALM      30.07S
MOSBY          MOSUNNY   43  43 100 CALM      30.06F FOG
WARRENSBURG    CLEAR     43  41  93 CALM      30.06S
WHITEMAN AFB   NOT AVBL
CLINTON        CLEAR     41  41 100 CALM      30.07S
SEDALIA        CLEAR     46  45  96 SW5       30.07S
WARSAW         NOT AVBL
CHILLICOTHE      N/A     42  41  96 CALM      30.07S
KIRKSVILLE     PTCLDY    40  38  93 NW3       30.05F FOG

$$

MOZ041-047>049-056>058-063>065-088>090-097-030800-
...EASTERN AND SOUTHERN MISSOURI...

CITY           SKY/WX    TMP DP  RH WIND       PRES   REMARKS
ST. LOUIS INTL CLOUDY    53  48  83 NW7       30.02F
SPIRIT OF STL  CLOUDY    52  50  93 W5        30.02F
COLUMBIA       FOG       43  43 100 CALM      30.05S VSB 1/4
JEFFERSON CITY FOG       45  45 100 CALM      30.06S VSB 3/4
ROLLA          CLOUDY    48  47  96 NW7       30.02F
OSAGE BEACH    MOCLDY    43  36  75 CALM      30.06S
SPRINGFIELD    PTCLDY    44  41  89 CALM      30.05F FOG
JOPLIN         CLEAR     44  43  96 CALM      30.08S
WEST PLAINS    CLOUDY    51  45  79 CALM      30.04F

$$

IAZ060-094-KSZ022-034>040-054-083-096-NEZ052-066-093-030800-
...KANSAS...SOUTHEAST NEBRASKA AND IOWA...

CITY           SKY/WX    TMP DP  RH WIND       PRES   REMARKS
TOPEKA         CLEAR     43  41  93 CALM      30.07S
MANHATTAN      CLEAR     44  40  85 CALM      30.06S
EMPORIA        PTCLDY    45  43  93 S7        30.07S
CHANUTE        CLEAR     44  41  89 W3        30.08S
WICHITA        PTCLDY    46  40  79 S3        30.06F
OMAHA          PTCLDY    47  43  86 CALM      30.05S
LINCOLN        CLEAR     48  43  82 CALM      30.07S
FALLS CITY     PTCLDY    46  42  86 CALM      30.06S
LAMONI         CLEAR     45  42  89 SW3       30.05F
DES MOINES     PTCLDY    45  40  82 SW3       30.05S

$$





USA.gov is the U.S. government's official web portal to all federal, state and local government web resources and services.